Total_Precipitation_Accumulation
0.01 0.00 0.00 0.00 0.01 0.02 0.02 0.00 0.00 0.01 0.01 0.01 0.01 0.02 0.02 0.01 0.01 0.00 0.00 0.01 0.01 0.01 0.01 0.01 0.02 0.06 0.13 0.18 0.17 0.18 0.24 0.26 0.24 0.23 0.27 0.32 0.30 0.34 0.41 0.47 0.49 0.52 0.54 0.56
0.01 0.00 0.00 0.00 0.02 0.02 0.01 0.01 0.00 0.01 0.01 0.01 0.01 0.01 0.01 0.01 0.01 0.00 0.01 0.01 0.01 0.01 0.01 0.01 0.01 0.01 0.02 0.05 0.09 0.13 0.15 0.17 0.16 0.17 0.22 0.30 0.36 0.39 0.49 0.62 0.70 0.70 0.67 0.67
0.00 0.00 0.00 0.00 0.01 0.01 0.00 0.00 0.00 0.00 0.00 0.01 0.01 0.01 0.02 0.02 0.02 0.01 0.02 0.02 0.02 0.02 0.02 0.02 0.01 0.01 0.01 0.02 0.03 0.06 0.10 0.13 0.12 0.20 0.38 0.64 0.88 0.94 0.93 0.93 1.05 1.13 1.05 0.93
0.00 0.00 0.00 0.00 0.00 0.00 0.00 0.00 0.00 0.00 0.00 0.00 0.00 0.01 0.02 0.04 0.05 0.06 0.06 0.07 0.07 0.08 0.06 0.04 0.03 0.03 0.02 0.02 0.02 0.02 0.06 0.10 0.13 0.30 0.61 0.99 1.30 1.39 1.36 1.47 1.50 1.53 1.44 1.27
0.00 0.00 0.00 0.00 0.00 0.00 0.00 0.00 0.00 0.00 0.01 0.00 0.00 0.01 0.03 0.07 0.12 0.16 0.16 0.17 0.18 0.15 0.11 0.08 0.06 0.05 0.07 0.08 0.08 0.08 0.14 0.26 0.42 0.55 0.70 0.98 1.16 1.26 1.38 1.54 1.69 1.79 1.90 1.85
0.00 0.00 0.00 0.00 0.00 0.00 0.00 0.00 0.00 0.00 0.00 0.00 0.00 0.02 0.08 0.16 0.20 0.24 0.24 0.25 0.23 0.19 0.13 0.10 0.09 0.10 0.15 0.22 0.23 0.24 0.32 0.40 0.47 0.56 0.68 0.79 0.87 1.04 1.21 1.36 1.52 1.63 1.75 1.75
0.00 0.00 0.00 0.00 0.00 0.00 0.00 0.00 0.00 0.01 0.01 0.02 0.02 0.06 0.15 0.17 0.17 0.20 0.21 0.18 0.15 0.15 0.15 0.14 0.13 0.18 0.23 0.30 0.33 0.39 0.45 0.52 0.52 0.57 0.64 0.72 0.78 0.90 1.04 1.10 1.11 1.10 1.08 1.10
0.00 0.00 0.00 0.00 0.00 0.00 0.00 0.00 0.01 0.02 0.02 0.03 0.04 0.13 0.24 0.16 0.10 0.08 0.10 0.11 0.12 0.17 0.20 0.20 0.19 0.26 0.31 0.38 0.46 0.54 0.59 0.58 0.58 0.64 0.70 0.71 0.78 0.88 0.91 0.83 0.75 0.74 0.74 0.79
0.00 0.00 0.00 0.00 0.00 0.00 0.00 0.00 0.01 0.03 0.02 0.02 0.05 0.15 0.15 0.07 0.05 0.05 0.09 0.15 0.20 0.26 0.30 0.31 0.32 0.37 0.40 0.47 0.56 0.63 0.65 0.65 0.69 0.72 0.78 0.90 0.89 0.85 0.77 0.62 0.53 0.53 0.50 0.48
0.00 0.00 0.00 0.00 0.00 0.00 0.00 0.01 0.02 0.03 0.04 0.06 0.11 0.15 0.13 0.08 0.10 0.12 0.17 0.24 0.35 0.44 0.45 0.47 0.52 0.55 0.55 0.55 0.63 0.69 0.74 0.76 0.75 0.78 0.89 1.07 0.98 0.73 0.56 0.46 0.46 0.46 0.45 0.46
0.00 0.00 0.00 0.00 0.00 0.03 0.05 0.03 0.02 0.02 0.03 0.13 0.29 0.42 0.46 0.45 0.38 0.42 0.42 0.49 0.63 0.68 0.69 0.69 0.70 0.72 0.66 0.66 0.72 0.75 0.80 0.90 0.91 0.86 0.92 0.97 0.76 0.53 0.42 0.40 0.35 0.30 0.28 0.29
0.00 0.00 0.00 0.00 0.00 0.02 0.07 0.06 0.03 0.05 0.07 0.16 0.33 0.54 0.64 0.70 0.68 0.79 0.85 0.96 0.89 0.83 0.83 0.76 0.70 0.68 0.57 0.57 0.66 0.74 0.83 0.88 0.81 0.75 0.72 0.58 0.41 0.32 0.30 0.26 0.21 0.15 0.14 0.15
0.00 0.00 0.00 0.00 0.00 0.02 0.05 0.04 0.02 0.03 0.10 0.16 0.34 0.57 0.61 0.69 0.79 0.94 1.04 1.04 0.84 0.67 0.57 0.52 0.50 0.44 0.39 0.41 0.47 0.53 0.64 0.70 0.54 0.42 0.39 0.35 0.28 0.26 0.24 0.19 0.17 0.15 0.12 0.12
0.00 0.00 0.00 0.00 0.01 0.02 0.03 0.03 0.02 0.02 0.10 0.18 0.34 0.49 0.51 0.62 0.78 0.87 0.88 0.76 0.54 0.37 0.29 0.23 0.18 0.17 0.19 0.21 0.22 0.20 0.25 0.35 0.30 0.25 0.22 0.22 0.21 0.21 0.22 0.22 0.22 0.17 0.13 0.13
0.00 0.00 0.00 0.00 0.00 0.00 0.00 0.01 0.02 0.03 0.07 0.19 0.29 0.35 0.40 0.42 0.45 0.47 0.48 0.41 0.30 0.19 0.11 0.06 0.06 0.07 0.09 0.09 0.09 0.08 0.07 0.08 0.12 0.15 0.15 0.17 0.17 0.17 0.17 0.19 0.19 0.16 0.14 0.11
0.00 0.00 0.00 0.00 0.00 0.00 0.00 0.01 0.03 0.06 0.10 0.17 0.19 0.22 0.20 0.14 0.10 0.10 0.12 0.13 0.10 0.05 0.02 0.01 0.01 0.01 0.01 0.01 0.01 0.01 0.01 0.01 0.01 0.02 0.04 0.07 0.10 0.11 0.13 0.13 0.13 0.12 0.10 0.09
0.00 0.00 0.00 0.00 0.00 0.00 0.00 0.00 0.03 0.06 0.07 0.08 0.12 0.16 0.15 0.09 0.03 0.01 0.01 0.02 0.02 0.02 0.01 0.00 0.00 0.00 0.00 0.00 0.00 0.00 0.00 0.00 0.00 0.00 0.01 0.01 0.02 0.03 0.03 0.03 0.04 0.04 0.04 0.03
0.00 0.00 0.00 0.00 0.00 0.00 0.00 0.00 0.00 0.01 0.02 0.04 0.05 0.07 0.08 0.04 0.01 0.00 0.00 0.00 0.00 0.00 0.00 0.00 0.00 0.00 0.00 0.00 0.00 0.00 0.00 0.00 0.00 0.00 0.00 0.00 0.00 0.00 0.01 0.01 0.01 0.01 0.01 0.02
0.00 0.00 0.00 0.00 0.00 0.00 0.00 0.00 0.00 0.00 0.00 0.00 0.00 0.01 0.01 0.00 0.00 0.00 0.00 0.00 0.00 0.00 0.00 0.00 0.00 0.00 0.00 0.00 0.00 0.00 0.00 0.00 0.00 0.00 0.00 0.00 0.00 0.00 0.00 0.00 0.00 0.00 0.01 0.02
0.00 0.00 0.00 0.00 0.00 0.00 0.00 0.00 0.00 0.00 0.00 0.00 0.00 0.00 0.00 0.00 0.00 0.00 0.00 0.00 0.00 0.00 0.00 0.00 0.00 0.00 0.00 0.00 0.00 0.00 0.00 0.00 0.00 0.00 0.00 0.00 0.00 0.00 0.01 0.01 0.01 0.00 0.01 0.01
0.00 0.00 0.00 0.00 0.00 0.00 0.00 0.00 0.00 0.00 0.00 0.00 0.00 0.00 0.00 0.00 0.00 0.00 0.00 0.00 0.00 0.00 0.00 0.00 0.00 0.00 0.00 0.00 0.00 0.00 0.00 0.00 0.00 0.00 0.00 0.01 0.01 0.00 0.02 0.02 0.02 0.01 0.01 0.01
0.00 0.00 0.00 0.00 0.00 0.00 0.00 0.00 0.00 0.00 0.00 0.00 0.00 0.00 0.00 0.00 0.00 0.00 0.00 0.00 0.00 0.00 0.00 0.00 0.00 0.00 0.00 0.00 0.00 0.00 0.00 0.00 0.00 0.00 0.01 0.01 0.01 0.01 0.01 0.02 0.01 0.01 0.01 0.01
0.00 0.00 0.00 0.00 0.00 0.00 0.00 0.00 0.00 0.00 0.00 0.00 0.00 0.00 0.00 0.00 0.00 0.00 0.00 0.00 0.00 0.00 0.00 0.00 0.00 0.00 0.00 0.00 0.00 0.00 0.00 0.00 0.00 0.00 0.00 0.00 0.01 0.01 0.01 0.01 0.01 0.01 0.01 0.01
0.00 0.00 0.00 0.00 0.00 0.00 0.00 0.00 0.00 0.00 0.00 0.00 0.00 0.00 0.00 0.00 0.00 0.00 0.00 0.00 0.00 0.00 0.00 0.00 0.00 0.00 0.00 0.00 0.00 0.00 0.00 0.00 0.00 0.00 0.00 0.00 0.00 0.01 0.01 0.01 0.00 0.01 0.01 0.01
0.00 0.00 0.00 0.00 0.00 0.00 0.00 0.00 0.00 0.00 0.00 0.00 0.00 0.00 0.00 0.00 0.00 0.00 0.00 0.00 0.00 0.00 0.00 0.00 0.00 0.00 0.00 0.00 0.00 0.00 0.00 0.00 0.00 0.00 0.00 0.00 0.00 0.01 0.02 0.01 0.00 0.00 0.00 0.00
0.00 0.00 0.00 0.00 0.00 0.00 0.00 0.00 0.00 0.00 0.00 0.00 0.00 0.00 0.00 0.00 0.00 0.00 0.00 0.00 0.00 0.00 0.00 0.00 0.00 0.00 0.00 0.00 0.00 0.00 0.00 0.00 0.00 0.00 0.00 0.00 0.00 0.00 0.01 0.02 0.01 0.00 0.00 0.00